Location: Aldenham
(51.6667°N, 0.3500°W)
Time: 17:27:28
(UTC+00:00)

Explorer 7 - Pass Details

Date: 18 February 2026
Orbit: 430 x 542 km, 50.2° (Epoch: 8 March)

Event Time Altitude Azimuth Distance (km) Brightness Sun altitude
Rises 19:42:55 0° 280° (W) 2,528 11.7 -22.5°
Reaches altitude 10° 19:45:09 10° 272° (W) 1,669 10.4 -22.8°
Enters shadow 19:48:34 37° 207° (SSW) 788 7.7 -23.3°
Maximum altitude 19:48:39 37° 204° (SSW) 788 - -23.3°
Drops below altitude 10° 19:52:17 10° 136° (SE) 1,728 - -23.9°
Sets 19:54:37 0° 129° (SE) 2,633 - -24.2°
